New Castle, DE

10:47 AM EST on February 26, 2017 (GMT -0500)
New Castle County

Weather History for KILG - May, 2013

Change the Weather History Date:

Monday, May 13, 2013

  Actual Average Record
Temperature  
Mean Temperature 49 °F 62 °F  
Max Temperature 58 °F 72 °F 89 °F (1991)
Min Temperature 39 °F 52 °F 35 °F (1928)
Degree Days  
Heating Degree Days 16 5  
Month to date heating degree days 75 78  
Since 1 July heating degree days 4570 4747  
Cooling Degree Days 0 2  
Month to date cooling degree days 8 15  
Year to date cooling degree days 25 27  
Moisture  
Dew Point 30 °F    
Average Humidity 50    
Maximum Humidity 70    
Minimum Humidity 30    
Precipitation  
Precipitation T in 0.13 in 2.12 in (1897)
Month to date precipitation 1.58 1.57  
Year to date precipitation 12.82 14.68  
Snow  
Snow 0.00 in 0.00 in 0.00 in (1894)
Month to date snowfall 0.0 0.0  
Since 1 July snowfall 5.5 20.2  
Snow Depth 0.00 in    
Sea Level Pressure  
Sea Level Pressure 30.07 in    
Wind  
Wind Speed 8 mph (WNW)    
Max Wind Speed 22 mph    
Max Gust Speed 32 mph    
Visibility 10 miles    
Events      
T = Trace of Precipitation, MM = Missing Value Source: NWS Daily Summary

Daily Weather History Graph

Daily Weather History Graph

Search for Another Location

Airport or City:

Trip Planner

Search our weather history database for the weather conditions in past years. The results will help you decide how hot, cold, wet, or windy it might be!

Date:

Astronomy

May. 13, 2013 Rise Set
Actual Time 5:49 AM EDT 8:08 PM EDT
Civil Twilight 5:19 AM EDT 8:38 PM EDT
Nautical Twilight 4:42 AM EDT 9:16 PM EDT
Astronomical Twilight 4:01 AM EDT 9:57 PM EDT
Moon 8:33 AM EDT (5/13) 11:16 PM EDT (5/13)
Length of Visible Light 15h 19m
Length of Day
14h 18m
Waxing Crescent, 12% of the Moon is Illuminated
May 13
Waxing Crescent
May 18
First Quarter
May 25
Full
May 31
Last Quarter
Jun 8
New

Hourly Weather History & Observations

Time (EDT) Temp. Windchill Dew Point Humidity Pressure Visibility Wind Dir Wind Speed Gust Speed Precip Events Conditions
12:51 AM 48.9 °F - 30.0 °F 48% 30.02 in 10.0 mi West 8.1 mph - N/A   Clear
1:51 AM 48.9 °F - 28.9 °F 46% 30.02 in 10.0 mi West 5.8 mph - N/A   Clear
2:51 AM 46.0 °F 44.8 °F 30.9 °F 56% 30.02 in 10.0 mi WSW 3.5 mph - N/A   Clear
3:51 AM 45.0 °F 43.5 °F 32.0 °F 60% 30.02 in 10.0 mi SW 3.5 mph - N/A   Clear
4:51 AM 43.0 °F - 30.9 °F 62% 30.04 in 10.0 mi Calm Calm - N/A   Clear
5:51 AM 43.0 °F - 34.0 °F 71% 30.05 in 10.0 mi Calm Calm - N/A   Clear
6:51 AM 44.1 °F 41.5 °F 35.1 °F 71% 30.07 in 10.0 mi WNW 4.6 mph - N/A   Clear
7:51 AM 50.0 °F - 34.0 °F 54% 30.09 in 10.0 mi NNW 6.9 mph - N/A   Clear
8:51 AM 53.1 °F - 32.0 °F 45% 30.10 in 10.0 mi WNW 10.4 mph - N/A   Partly Cloudy
9:51 AM 53.1 °F - 33.1 °F 47% 30.09 in 10.0 mi NW 11.5 mph - N/A   Clear
10:51 AM 53.1 °F - 32.0 °F 45% 30.09 in 10.0 mi West 6.9 mph 16.1 mph N/A   Mostly Cloudy
11:51 AM 53.1 °F - 33.1 °F 47% 30.09 in 10.0 mi NW 16.1 mph 21.9 mph 0.00 in   Overcast
12:51 PM 54.0 °F - 30.9 °F 41% 30.09 in 10.0 mi WNW 8.1 mph 18.4 mph N/A   Overcast
1:51 PM 53.1 °F - 30.9 °F 43% 30.09 in 10.0 mi NW 13.8 mph 23.0 mph N/A   Overcast
2:51 PM 55.0 °F - 28.9 °F 37% 30.07 in 10.0 mi WNW 11.5 mph 21.9 mph N/A   Scattered Clouds
3:51 PM 57.9 °F - 30.0 °F 35% 30.06 in 10.0 mi WNW 21.9 mph 26.5 mph N/A   Mostly Cloudy
4:51 PM 55.9 °F - 27.0 °F 33% 30.06 in 10.0 mi NW 13.8 mph 21.9 mph N/A   Mostly Cloudy
5:51 PM 55.9 °F - 27.0 °F 33% 30.05 in 10.0 mi NW 17.3 mph 25.3 mph N/A   Partly Cloudy
6:51 PM 55.0 °F - 25.0 °F 31% 30.05 in 10.0 mi NNW 11.5 mph 21.9 mph N/A   Partly Cloudy
7:51 PM 51.8 °F - 24.8 °F 35% 30.07 in 10.0 mi NW 9.2 mph - N/A   Clear
8:51 PM 46.0 °F 42.5 °F 27.0 °F 47% 30.09 in 10.0 mi NW 6.9 mph - N/A   Clear
9:51 PM 48.0 °F - 27.0 °F 44% 30.12 in 10.0 mi Calm Calm - N/A   Clear
10:51 PM 44.1 °F 41.5 °F 28.0 °F 53% 30.13 in 10.0 mi NW 4.6 mph - N/A   Clear
11:51 PM 43.0 °F 39.5 °F 28.9 °F 58% 30.15 in 10.0 mi North 5.8 mph - N/A   Clear